Location: Newark
(44.6768°N, 22.5302°E)
Time: 13:00:32
(UTC+00:00)

AO-92 - Pass Details

Date: 03 July 2022
Orbit: 470 x 481 km, 97.4° (Epoch: 07 August)

Event Time Altitude Azimuth Distance (km) Brightness Sun altitude
Exits shadow 20:23:55 36° 151° (SSE) 769 ? -16.2°
Maximum altitude 20:25:13 72° 76° (ENE) 510 ? -16.3°
Drops below altitude 10° 20:28:47 10° 352° (N) 1,669 ? -16.6°
Sets 20:30:52 0° 350° (N) 2,556 ? -16.8°
